DON’T GET FOOLED BY PROMISES OF DEEP DISCOUNTS

Do Your Homework

Have a License from Another Country? Want to Convert to A US License? We can Help!

Learn More

ADF AIRWAYS. MIAMI FLORIDA’S PREMIER FLIGHT TRAINING ACADEMY

Thank you for visiting ADF Airways. Located in Miami, Florida, ADF airways is a premier Flight Training school dedicated to helping those who want to learn how to fly. Whether you are a new student seeking a license to fly for fun, or an advanced pilot looking to get your ATP rating, we’re confident ADF Airways will exceed your expectations!

 

OVER 3 DECADES OF EXPERIENCE WITH A PERSONAL TOUCH

ADF Airways has been in the business of helping pilots since 1986. We take an individual approach to flight training, and can tailor your experience at whatever pace you choose. Our instructors have a combined experience of well over 40 years in the business, and we’re sure we will be able to help you live your dream. ADF Airways is :

  • An FAA-approved Part 141 Flight Academy (Part 61 training available)
  • Approved by the Department of Veterans Affairs (VA)
  • An experiecnced leader in helping students attatin a full range of ratings from Private Pilot to Airline Transport Pilot with Jet Transition training.
  • A strong partner that assists  foreign students to gain FAA ratings and student visas.
  • A quality centered organization that provides experienced Flight Instructors
  • A large provider of a wide range of single and multi-engine aircraft.

ADF Airways has been providing quality Flight instruction for over 3 decades. Established in 1986, we are located at the Kendall-Tamiami Executive Airport (TMB) in Miami, Florida. We have grown into an institution of more than 200 active students. ADF Airways is dedicated to giving each person the personal attention he or she deserves. Our experienced flight instructor staff truly enjoys teaching and giving their undivided attention to the wants and needs of each student. They here just to to help you succeed!

 

 

Facebook By Weblizar Powered By Weblizar

METARS

KTMB 292253Z 11003KT 10SM CLR 27/23 A3004 RMK AO2 SLP171 T02670233

KOPF 292253Z 16004KT 10SM FEW120 28/22 A3005 RMK AO2 RAE04 SLP175 P0000 T02780222

KFLL 292253Z 19004KT 10SM FEW025 FEW045 BKN120 BKN250 27/23 A3003 RMK AO2 RAE52 SLP169 P0003 T02720233

TAF INFORMATION

TAF AMD KTMB 292059Z 2921/3018 VRB05KT P6SM VCTS FEW025 SCT050CB BKN120 FM300000 VRB02KT P6SM SCT035 SCT100 FM301700 16008KT P6SM VCTS SCT025CB SCT060 BKN250

TAF AMD KOPF 292059Z 2921/3018 18007KT P6SM VCSH FEW025 BKN250 FM300200 VRB05KT P6SM SCT035 SCT100 FM301700 17010KT P6SM VCTS SCT025CB SCT060 BKN200

TAF AMD KFLL 292059Z 2921/3018 19007KT P6SM VCSH FEW025 SCT060 BKN250 FM300200 VRB05KT P6SM SCT035 SCT100 FM301700 17010KT P6SM VCTS SCT025CB SCT060 BKN200

SO MANY GRADUATES, SO MANY DREAMS MADE REALITY

ADF Airways has graduated many students over its 30 plus years in the business. The above gallery shows just a sample of our most recent graduates. Click here to see our gallery of graduates page.

Our Programs and Services

ADF Airways offers a variety of programs to suit your needs. Click on any of the links below for more information

Private Pilot Course

Foreign License Conversion

Instrument Rating Course

Jet Transition Program

Commercial Pilot Course

CFI Course

FAA Testing Center

PARTNERS